Weather History for Palm Springs, CA

Change the Weather History Date:

Sunday, June 22, 2014

  Actual Average Record
Temperature  
Mean Temperature 91 °F 88 °F  
Max Temperature 107 °F 104 °F 119 °F (1959)
Min Temperature 75 °F 73 °F 54 °F (1944)
Degree Days  
Heating Degree Days 0 0  
Month to date heating degree days 0 0  
Since 1 June heating degree days 0 0  
Since 1 July heating degree days 431 874  
Cooling Degree Days 26 23  
Month to date cooling degree days 531 451  
Year to date cooling degree days 1641 1210  
Since 1 June cooling degree days 531 451  
Growing Degree Days 42 (Base 50)    
Moisture  
Dew Point 33 °F    
Average Humidity 16    
Maximum Humidity 26    
Minimum Humidity 5    
Precipitation  
Precipitation 0.00 in 0.00 in 0.00 in (2015)
Month to date precipitation 0.00 0.04  
Year to date precipitation 0.75 2.92  
Since 1 July precipitation 2.01 5.72  
Snow  
Snow 0.00 in - - ()
Month to date snowfall 0.0  
Year to date snowfall 0.0  
Since 1 July snowfall 0.0  
Snow Depth 0.00 in    
Sea Level Pressure  
Sea Level Pressure 29.72 in    
Wind  
Wind Speed 6 mph (WNW)    
Max Wind Speed 20 mph    
Max Gust Speed 26 mph    
Visibility 10 miles    
Events      
T = Trace of Precipitation, MM = Missing Value Source: NWS Daily Summary

Daily Weather History Graph

Daily Weather History Graph

Search for Another Location

Airport:

Trip Planner

Search our weather history database for the weather conditions in past years. The results will help you decide how hot, cold, wet, or windy it might be!

Date:

Astronomy

Jun. 22, 2014 Rise Set
Actual Time 5:35 AM PDT 8:00 PM PDT
Civil Twilight 5:06 AM PDT 8:29 PM PDT
Nautical Twilight 4:30 AM PDT 9:05 PM PDT
Astronomical Twilight 3:51 AM PDT 9:44 PM PDT
Moon 2:16 AM PDT (6/22) 3:54 PM PDT (6/22)
Length of Visible Light 15h 22m
Length of Day
14h 24m
Waning Crescent, 20% of the Moon is Illuminated
Jun 22
Waning Crescent
Jun 27
New
Jul 5
First Quarter
Jul 12
Full
Jul 18
Last Quarter

Hourly Weather History & Observations

Time (PDT) Temp. Dew Point Humidity Pressure Visibility Wind Dir Wind Speed Gust Speed Precip Events Conditions
12:53 AM 86.0 °F 35.1 °F 16% 29.70 in 10.0 mi Calm Calm - N/A   Clear
1:53 AM 82.0 °F 39.0 °F 22% 29.70 in 10.0 mi South 3.5 mph - N/A   Clear
2:53 AM 82.9 °F 39.0 °F 21% 29.70 in 10.0 mi Calm Calm - N/A   Clear
3:53 AM 81.0 °F 37.9 °F 21% 29.72 in 10.0 mi Calm Calm - N/A   Clear
4:53 AM 78.1 °F 39.9 °F 25% 29.73 in 10.0 mi SW 3.5 mph - N/A   Clear
5:53 AM 81.0 °F 37.9 °F 21% 29.75 in 10.0 mi WNW 3.5 mph - N/A   Clear
6:53 AM 80.1 °F 42.1 °F 26% 29.76 in 10.0 mi West 4.6 mph - N/A   Clear
7:53 AM 86.0 °F 36.0 °F 17% 29.76 in 10.0 mi East 3.5 mph - N/A   Clear
8:53 AM 91.0 °F 30.9 °F 12% 29.79 in 10.0 mi SSE 6.9 mph - N/A   Clear
9:53 AM 93.9 °F 28.0 °F 10% 29.79 in 10.0 mi ESE 4.6 mph - N/A   Clear
10:53 AM 97.0 °F 26.1 °F 8% 29.79 in 10.0 mi WSW 3.5 mph - N/A   Clear
11:53 AM 99.0 °F 19.9 °F 6% 29.78 in 10.0 mi Variable 6.9 mph - N/A   Clear
12:53 PM 102.0 °F 19.0 °F 5% 29.76 in 10.0 mi SSW 4.6 mph - N/A   Clear
1:53 PM 105.1 °F 26.1 °F 6% 29.73 in 10.0 mi North 12.7 mph 18.4 mph N/A   Clear
2:53 PM 105.1 °F 25.0 °F 6% 29.71 in 10.0 mi NW 13.8 mph 23.0 mph N/A   Clear
3:53 PM 107.1 °F 23.0 °F 5% 29.69 in 10.0 mi NNW 18.4 mph 24.2 mph N/A   Clear
4:53 PM 106.0 °F 23.0 °F 5% 29.67 in 10.0 mi WNW 13.8 mph 21.9 mph N/A   Clear
5:53 PM 104.0 °F 27.0 °F 7% 29.66 in 10.0 mi NW 18.4 mph 27.6 mph N/A   Clear
6:53 PM 100.9 °F 33.1 °F 9% 29.66 in 10.0 mi NW 17.3 mph 24.2 mph N/A   Clear
7:53 PM 96.1 °F 41.0 °F 15% 29.67 in 10.0 mi NW 19.6 mph 27.6 mph N/A   Clear
8:53 PM 91.9 °F 44.1 °F 19% 29.68 in 10.0 mi NW 21.9 mph 29.9 mph N/A   Clear
9:53 PM 90.0 °F 43.0 °F 19% 29.70 in 10.0 mi NW 19.6 mph - N/A   Clear
10:53 PM 89.1 °F 39.9 °F 18% 29.70 in 10.0 mi NW 11.5 mph - N/A   Clear
11:53 PM 84.0 °F 44.1 °F 25% 29.71 in 10.0 mi Variable 3.5 mph - N/A   Clear